📊 Raw Sensor Data

Showing records 49126 to 49150 of 85,114 total

ID Distance (ft) Battery V Battery A Int Temp (°F) Int Humid (%) Ext Temp (°F) Solar V RSSI SNR Time Stamp
36001 -- 4.03 0 95 36 80 5.10 -82 9 03/25/2025 02:00 PM
36000 -- 4.03 0 93 37 81 5.10 -82 8 03/25/2025 01:45 PM
35999 -- 4.03 0 92 36 81 5.10 -82 8 03/25/2025 01:30 PM
35998 -- 4.14 0 90 37 80 5.10 -82 9 03/25/2025 01:15 PM
35997 -- 4.03 0 89 37 78 5.10 -83 9 03/25/2025 01:00 PM
35996 -- 4.12 0 89 36 77 5.10 -83 8 03/25/2025 12:45 PM
35995 -- 4.03 0 87 36 77 5.10 -83 9 03/25/2025 12:30 PM
35994 -- 4.03 0 86 36 76 5.10 -81 8 03/25/2025 12:15 PM
35993 -- 4.03 0 84 37 78 5.10 -81 8 03/25/2025 12:00 PM
35992 -- 4.15 0 82 37 74 5.10 -81 9 03/25/2025 11:45 AM
35991 -- 4.03 0 80 37 75 5.10 -82 9 03/25/2025 11:30 AM
35990 -- 4.03 5 78 37 75 5.10 -81 8 03/25/2025 11:15 AM
35989 -- 4.03 5 77 37 72 5.10 -83 8 03/25/2025 11:00 AM
35988 -- 4.11 5 75 36 73 5.10 -81 8 03/25/2025 10:46 AM
35987 -- 4.03 0 73 36 72 5.10 -81 9 03/25/2025 10:30 AM
35986 -- 4.03 5 71 36 72 5.10 -82 9 03/25/2025 10:15 AM
35985 -- 4.03 0 69 36 69 5.10 -82 9 03/25/2025 10:00 AM
35984 -- 4.03 5 66 37 74 5.10 -82 8 03/25/2025 09:45 AM
35983 -- 4.13 0 63 37 67 5.10 -82 8 03/25/2025 09:30 AM
35982 -- 4.03 5 62 37 66 5.10 -82 8 03/25/2025 09:15 AM
35981 -- 4.05 5 60 37 66 5.10 -88 7 03/25/2025 09:00 AM
35980 -- 4.13 0 57 37 68 5.10 -89 7 03/25/2025 08:30 AM
35979 -- 4.03 5 54 37 62 5.10 -89 8 03/25/2025 08:16 AM
35978 15.3 4.10 43 52 38 58 4.50 -90 6 03/25/2025 08:00 AM
35977 -- 4.03 13 49 39 53 4.50 -91 4 03/25/2025 07:45 AM